Starlink 1705

decayed
NORAD ID: 46579 Int'l Des: 2020-070 Owner: SPXS Country: US Constellation: starlink
LEOCIRCULAR

关于 Starlink 1705

正在加载描述...

高度历史

Altitude vs Time

uPlot chart will show altitude changes over time

两行轨道根数

1 46579U 20070AZ 26023.79490439 .11607538 12440-4 40574-3 0 9997
2 46579 53.0201 294.2581 0003650 223.1427 136.9336 16.44406261293919
Epoch: Jan 23, 2026 • Age: 1213 hours

当前状态

Position data unavailable
发射日期 Oct 6, 2020
运行时间 5.4 years
衰减日期 Jan 23, 2026
类型 internet

技术详情

分类 Payload
质量 260.00 kg
干质量 248.00 kg
总质量 260.00 kg
长度 0.20 m
直径 2.80 m
跨度 9.00 m
形状 Box + pan
制造商 SPXS
平台类型 Starlink
阶段状态 Reentered
所有者/国家 SPXS/US

大型星座

Loading constellations...